Starlink 37255

operational
NORAD ID: 68555 Int'l Des: 2026-070 Owner: SPXS Country: US Constellation: starlink
LEOCIRCULAR

Starlink 37255について

説明を読み込み中...

リアルタイム位置

3D地球を読み込み中...

次回通過

高度履歴

Altitude vs Time

uPlot chart will show altitude changes over time

軌道要素

1 68555C 26070N 26093.79770833 .00565310 00000+0 69603-3 0 939
2 68555 53.1620 260.1299 0008543 285.3407 56.4033 16.06812082 12
Epoch: Apr 3, 2026 • Age: 32 hours

現在のステータス

高度 256.8 km
速度 7.75 km/s
衛星直下点 -6.52°S, 130.48°E
打ち上げ日 Apr 2, 2026
運用期間 1 days
タイプ internet

技術仕様

分類 Payload
質量 575.00 kg
乾燥質量 530.00 kg
総質量 575.00 kg
長さ 0.30 m
直径 4.10 m
スパン 29.00 m
形状 Box + pan
製造者 SPXS
バスタイプ Starlink V2MO
フェーズステータス In Orbit
所有者/国 SPXS/US

大規模コンステレーション

Loading constellations...